RH
8 7 7 6 6 6 6 6 6 6 7 6 6 6 8 14 25 25 26 28 27 27 28 30 25 21 18 11 11 11 12 12 13 13 12 12 13 20
8 7 7 7 7 7 7 6 6 7 7 6 6 7 8 11 26 24 22 26 28 26 26 28 27 22 20 14 13 12 12 12 11 14 16 20 27 32
9 8 8 7 7 7 7 7 7 7 8 8 7 7 9 13 24 27 18 18 23 24 24 27 28 22 21 15 12 12 11 10 10 13 14 13 16 22
10 9 9 8 8 8 8 7 7 7 8 8 8 8 10 12 22 29 24 17 16 21 24 26 26 23 21 13 13 11 8 10 9 9 10 10 18 18
13 13 12 11 10 10 9 9 9 8 8 8 8 9 13 19 23 27 27 20 18 20 23 25 25 23 17 13 10 6 10 8 7 7 8 12 12 12
16 15 14 14 12 12 11 10 10 10 9 9 9 12 15 23 27 28 31 23 17 21 22 25 24 21 14 12 7 7 11 7 6 6 7 7 7 7
18 18 17 17 16 14 12 12 12 11 10 10 11 13 22 28 31 34 35 29 14 18 21 25 24 18 15 14 7 8 12 7 6 6 5 5 6 5
22 21 20 18 18 16 15 15 15 13 13 13 13 15 26 31 34 36 36 29 12 15 19 25 22 20 14 11 6 8 11 7 6 5 5 5 5 5
25 24 21 21 21 20 18 18 16 16 15 15 15 18 26 35 34 35 33 22 12 11 15 24 23 19 17 13 6 6 10 8 7 6 5 5 5 4
29 28 25 24 23 22 20 20 21 20 20 19 19 20 29 37 36 33 32 22 12 9 9 18 25 22 18 14 8 8 12 10 7 6 5 5 4 4
33 31 29 27 28 27 25 24 23 24 25 25 24 23 27 34 38 36 30 26 18 11 9 7 21 24 26 26 16 13 15 12 8 7 6 5 5 5
38 35 34 33 33 32 30 28 27 29 29 29 27 28 29 32 41 39 32 24 22 15 11 9 9 13 18 22 22 19 16 12 10 8 7 7 6 7
42 40 39 38 38 36 35 35 35 34 32 30 34 33 34 38 45 40 33 25 18 16 13 10 9 8 8 8 9 11 11 10 9 9 8 8 8 8
50 49 47 45 43 41 39 38 37 35 37 39 42 44 47 47 44 38 29 23 16 11 10 12 11 10 9 9 9 9 8 8 8 9 9 9 9 9
56 53 50 48 47 46 46 46 47 48 48 47 46 47 44 35 29 22 18 13 11 10 10 9 9 10 10 10 9 10 10 10 11 11 11 11 11 10
70 67 65 61 59 61 60 57 54 51 49 46 43 36 26 17 12 12 11 11 10 11 10 10 10 10 10 10 10 11 11 11 12 11 12 13 12 12
73 72 69 66 62 58 53 50 46 43 35 27 21 16 14 14 13 12 12 12 11 11 11 11 10 10 10 10 10 10 11 12 12 12 13 15 15 15
57 54 53 52 48 49 47 41 31 23 19 16 16 15 15 14 14 13 12 12 11 10 10 11 11 10 10 10 10 11 12 13 14 14 17 16 20 21
53 50 42 42 40 38 31 25 22 20 19 18 17 16 15 15 15 14 14 12 11 11 11 11 12 11 11 11 12 15 15 14 14 17 22 26 26 27
40 38 42 34 32 29 27 26 24 23 24 23 21 20 20 20 17 16 15 13 13 13 12 12 13 16 16 16 16 18 23 21 30 30 35 32 38 41
52 45 47 49 44 43 42 41 40 39 38 35 32 29 26 24 21 19 18 18 17 17 16 19 31 33 28 27 23 22 29 40 42 44 46 48 56 57
63 66 78 74 70 69 76 68 60 52 41 32 30 28 26 25 24 23 27 33 48 52 57 46 43 61 64 71 56 100 76 64 76 79 87 87 92 88
94 86 67 59 70 87 77 62 51 37 34 33 20 17 24 23 21 28 52 100 100 100 100 100 100 100 100 100 100 79 100 100 100 100 100 100 94 100
Wind_Speed
31 29 28 28 29 29 30 30 30 29 30 31 32 35 34 34 34 33 33 31 31 31 32 31 29 30 29 28 27 28 28 30 30 32 32 32 33 33
33 32 32 32 32 32 33 33 33 33 31 34 33 34 37 36 35 34 34 32 32 32 32 31 29 30 29 29 29 30 30 31 31 30 31 31 32 32
36 35 35 36 36 36 36 35 36 36 34 34 35 35 36 38 36 36 35 35 34 33 33 31 29 29 30 30 30 30 31 29 30 30 29 28 29 31
40 40 38 39 39 39 38 38 38 37 36 36 37 36 37 39 37 37 37 37 35 35 34 32 30 30 30 30 31 30 27 29 28 25 24 25 27 29
41 40 40 41 40 40 40 39 38 39 38 38 37 38 39 38 39 39 37 37 36 36 35 34 31 31 30 31 31 28 28 28 25 24 25 27 28 30
44 44 43 42 42 41 42 41 40 40 40 40 39 39 40 40 40 41 38 38 37 37 37 35 34 31 29 31 31 29 30 27 26 26 26 27 29 30
48 46 45 44 44 44 44 43 42 43 43 42 41 41 40 41 42 42 41 39 38 38 38 37 35 34 32 32 32 31 31 29 29 30 29 30 32 33
51 50 49 48 48 47 46 45 46 46 45 44 43 42 41 42 43 42 41 41 38 39 38 38 37 35 34 34 32 31 33 32 30 31 31 31 33 34
55 54 53 51 51 50 50 49 49 48 48 47 46 44 42 44 44 43 42 41 40 39 39 38 39 37 35 35 35 34 35 35 34 33 33 34 34 36
58 57 57 56 55 54 53 51 49 51 50 49 49 46 44 44 45 44 43 41 41 40 40 38 39 39 38 35 36 36 38 38 37 36 35 36 36 36
62 61 61 60 59 57 57 53 50 53 52 51 51 49 48 47 46 47 45 45 43 42 42 41 41 42 41 40 38 38 41 42 41 41 40 39 39 38
65 65 64 63 61 60 59 56 54 54 53 52 51 51 50 50 50 50 48 46 47 45 43 44 43 42 42 43 43 42 42 41 42 42 42 41 41 40
68 67 66 66 65 64 62 60 58 57 56 55 55 53 55 55 53 53 52 51 48 47 46 46 45 44 43 42 44 44 44 44 43 42 44 44 44 43
71 70 70 69 67 66 65 62 62 62 60 59 59 59 57 56 56 55 54 53 52 50 50 49 48 47 48 47 46 47 47 47 47 46 47 47 46 45
75 73 71 71 70 70 69 68 67 66 65 63 60 58 57 57 57 57 57 56 55 54 53 52 53 53 52 51 51 50 51 51 50 50 51 50 49 47
80 79 78 77 76 75 74 72 70 67 65 63 61 61 60 59 59 58 58 57 57 55 55 54 55 55 55 55 55 54 54 53 53 53 53 52 51 49
79 78 77 75 73 72 71 71 70 69 67 63 62 60 60 59 59 60 59 59 60 59 59 59 59 58 58 58 57 55 55 55 55 55 55 53 50 48
79 78 78 78 77 76 74 71 69 67 66 65 64 63 63 64 65 65 65 65 65 66 65 63 64 63 63 62 60 57 56 56 56 56 54 53 50 47
84 84 82 81 79 76 74 73 72 70 69 70 71 71 71 68 68 69 68 68 68 68 68 68 67 67 66 64 59 57 57 58 58 55 53 50 47 46
86 84 83 83 82 81 79 78 76 74 73 73 71 71 70 71 71 71 71 72 72 71 71 71 70 65 64 61 60 57 56 56 53 52 50 49 47 45
85 85 83 81 79 77 75 74 72 72 70 69 70 71 73 75 74 73 73 73 74 72 71 68 61 61 60 59 59 58 53 51 51 49 47 48 47 47
79 78 77 77 72 73 71 70 69 67 68 68 64 63 64 64 66 67 67 67 63 61 60 61 58 56 53 54 51 47 50 47 47 46 46 47 48 48
77 76 77 75 72 70 68 68 66 65 61 58 55 58 59 59 59 60 59 56 51 52 50 55 59 53 54 49 49 48 47 49 46 48 48 47 46 47
Wind_Direction
235 240 247 253 258 264 271 276 282 287 293 297 303 306 307 304 304 303 302 300 297 297 298 295 291 296 298 299 300 299 297 298 299 298 297 296 295 296
243 247 251 255 260 265 269 275 281 285 289 294 298 301 303 303 303 302 301 299 297 298 298 295 291 294 296 297 299 299 298 299 299 299 297 297 299 299
247 250 253 257 261 266 270 274 277 281 286 291 294 297 298 299 300 301 300 297 296 296 298 297 291 290 292 294 295 295 296 297 297 299 299 301 303 305
251 254 257 261 264 267 270 273 276 280 284 287 291 294 296 297 297 298 299 298 297 297 297 295 290 288 290 292 293 293 293 296 298 300 299 299 302 308
254 257 260 263 265 268 270 272 275 278 281 284 288 291 293 293 295 295 296 298 298 295 293 292 288 287 289 291 290 288 288 294 295 296 295 299 303 310
254 256 259 262 265 267 270 272 274 277 280 282 285 288 289 291 293 293 294 294 296 293 291 290 289 287 286 285 286 284 289 289 291 291 295 299 304 311
254 257 260 262 264 266 268 271 273 275 277 280 282 284 286 289 292 292 292 292 291 291 290 288 287 286 284 281 281 284 287 288 287 290 293 298 301 306
255 257 259 261 263 265 267 268 270 273 275 278 280 281 282 287 289 290 291 290 290 288 287 286 285 284 283 280 280 286 290 289 288 290 294 295 298 302
254 256 258 259 262 263 265 267 270 272 274 276 278 278 279 284 287 288 287 287 288 286 286 285 285 285 282 278 279 283 285 287 287 289 292 294 297 301
255 257 259 260 261 263 264 266 269 272 273 275 276 276 277 282 286 286 286 286 285 285 284 282 280 280 280 278 279 281 283 285 284 286 289 293 294 298
255 256 258 260 262 263 264 266 267 269 272 273 274 274 275 279 285 284 284 283 283 283 284 283 280 279 278 278 278 280 282 284 286 289 290 290 293 296
254 257 259 260 262 263 265 265 265 268 269 270 273 273 273 279 282 280 279 279 280 281 283 282 281 279 278 278 277 277 277 279 281 284 287 289 292 295
255 257 258 259 261 263 264 266 269 269 269 270 273 273 277 278 277 275 276 277 278 279 279 279 280 280 280 279 279 280 279 280 281 282 284 287 290 292
254 256 257 260 261 263 264 266 266 267 269 271 272 274 274 273 273 273 274 276 276 276 277 279 279 279 279 279 280 281 281 282 284 285 286 286 288 290
255 256 258 259 261 263 265 266 268 270 271 271 272 272 272 271 271 272 272 273 274 275 276 277 278 279 279 279 281 282 283 284 285 285 286 286 287 288
256 258 259 260 261 263 266 267 267 267 268 269 270 271 271 272 272 271 272 273 273 275 277 278 278 279 279 279 280 281 281 282 283 284 284 284 285 287
257 258 259 259 261 262 264 266 267 267 269 269 269 269 269 270 270 272 272 274 275 276 278 280 280 279 280 279 280 280 281 281 281 280 281 282 284 285
256 257 259 261 262 263 264 265 267 268 269 269 268 270 270 273 273 274 273 274 276 276 277 277 278 279 279 279 279 278 278 278 278 279 281 282 282 283
256 258 260 261 262 264 265 266 267 268 269 269 271 273 272 271 272 274 273 273 274 273 274 275 275 277 277 277 277 276 275 275 276 278 279 279 279 279
256 257 259 261 262 264 265 266 267 267 266 268 268 268 267 269 269 269 269 270 269 269 271 271 272 274 274 275 273 271 271 273 273 274 274 274 275 276
256 257 259 261 262 263 264 264 264 264 264 264 265 266 265 265 266 266 266 266 268 269 269 269 270 268 268 268 268 269 269 269 271 272 272 273 273 274
253 254 255 257 260 259 259 261 262 263 265 264 264 264 265 265 265 265 265 266 267 267 269 271 269 267 264 263 267 258 268 270 269 271 272 271 272 274
251 252 255 256 255 254 254 255 258 261 258 260 264 269 270 268 264 263 262 253 255 259 263 260 268 264 262 262 259 262 265 268 270 269 269 271 272 272